FW1484 Weather Reports


time (UTC)temp
C
wind
direction
speed
KPH
gust
KPH
rain 1hr
cm
rain 24hr
cm
rain mn
cm
humidity
%
barometer
mb
20260507153048 14 105 0.0 9.7 0.00 0.00 0.00 69 1009.1
20260507151549 14 54 3.2 11.3 0.00 0.00 0.00 68 1009.2
20260507150049 14 52 1.6 11.3 0.00 0.00 0.00 68 1009.2
20260507144546 14 72 3.2 11.3 0.00 0.00 0.00 67 1009.2
20260507143047 13 138 4.8 9.7 0.00 0.00 0.00 68 1009.3
20260507141544 13 104 3.2 9.7 0.00 0.00 0.00 69 1009.6
20260507140045 13 105 4.8 12.9 0.00 0.00 0.00 69 1009.6
20260507134541 14 124 1.6 11.3 0.00 0.00 0.00 68 1009.6
20260507133047 14 139 4.8 11.3 0.00 0.00 0.00 66 1009.6
20260507131541 15 128 1.6 12.9 0.00 0.00 0.00 66 1009.7
20260507130042 14 131 3.2 9.7 0.00 0.00 0.00 66 1009.8
20260507124540 14 94 3.2 8.0 0.00 0.00 0.00 66 1009.7
20260507123041 13 127 1.6 12.9 0.00 0.00 0.00 66 1009.8
20260507121536 14 123 1.6 11.3 0.00 0.00 0.00 65 1009.8
20260507120035 15 102 3.2 17.7 0.00 0.00 0.00 64 1009.8
20260507114554 15 129 3.2 12.9 0.00 0.00 0.00 62 1009.9
20260507113057 15 72 4.8 16.1 0.00 0.00 0.00 60 1009.7
20260507111537 15 105 6.4 16.1 0.00 0.00 0.00 57 1009.8
20260507110028 15 77 3.2 12.9 0.00 0.00 0.00 57 1010.0
20260507104537 15 143 3.2 11.3 0.00 0.00 0.00 59 1010.1
20260507103025 14 100 6.4 14.5 0.00 0.00 0.00 61 1010.2
20260507101520 13 68 3.2 8.0 0.00 0.00 0.00 68 1010.3
20260507100016 13 95 0.0 0.0 0.00 0.00 0.00 71 1010.4
20260507094511 12 82 0.0 0.0 0.00 0.00 0.00 75 1010.3
20260507093007 11 114 0.0 0.0 0.00 0.00 0.00 76 1010.2
20260507091504 10 89 0.0 4.8 0.00 0.00 0.00 78 1010.5
20260507090100 10 117 0.0 1.6 0.00 0.00 0.00 78 1010.6
20260507084609 9 115 0.0 1.6 0.00 0.00 0.00 80 1010.5
20260507083055 8 77 0.0 1.6 0.00 0.00 0.00 82 1010.7
20260507081559 8 77 0.0 1.6 0.00 0.00 0.00 82 1010.7
20260507080051 8 107 0.0 1.6 0.00 0.00 0.00 84 1010.6
20260507074556 8 125 0.0 0.0 0.00 0.00 0.00 85 1010.5
20260507073053 7 124 0.0 0.0 0.00 0.00 0.00 85 1010.6
20260507071548 7 129 0.0 1.6 0.00 0.00 0.00 85 1010.5
20260507070048 7 134 0.0 0.0 0.00 0.00 0.00 86 1010.3
20260507064550 7 133 0.0 0.0 0.00 0.00 0.00 86 1010.2
20260507063046 7 133 0.0 0.0 0.00 0.00 0.00 87 1010.1
20260507061545 7 132 0.0 0.0 0.00 0.00 0.00 86 1010.2
20260507060045 7 148 0.0 0.0 0.00 0.00 0.00 86 1010.2
20260507054543 7 167 0.0 0.0 0.00 0.00 0.00 86 1010.1
20260507053043 7 167 0.0 0.0 0.00 0.00 0.00 86 1010.1
20260507051543 7 167 0.0 0.0 0.00 0.00 0.00 86 1010.0
20260507050043 7 167 0.0 0.0 0.00 0.00 0.00 86 1010.1
20260507044548 7 167 0.0 0.0 0.00 0.00 0.00 85 1010.0
20260507043055 7 167 0.0 0.0 0.00 0.00 0.00 85 1009.9
20260507041540 7 167 0.0 0.0 0.00 0.00 0.00 85 1009.9
20260507040041 7 167 0.0 0.0 0.00 0.00 0.00 85 1009.9
20260507034538 7 167 0.0 0.0 0.00 0.00 0.00 85 1009.9
20260507033038 7 167 0.0 0.0 0.00 0.00 0.00 84 1010.0
20260507031542 7 167 0.0 0.0 0.00 0.00 0.00 84 1010.0
20260507030036 7 169 0.0 0.0 0.00 0.00 0.00 84 1010.1
20260507024534 7 169 0.0 0.0 0.00 0.00 0.00 84 1010.0
20260507023034 7 141 0.0 0.0 0.00 0.00 0.00 84 1010.1
20260507021534 7 89 0.0 0.0 0.00 0.00 0.00 83 1010.0
20260507020045 7 56 0.0 0.0 0.00 0.00 0.00 83 1010.0
20260507014533 7 56 0.0 0.0 0.00 0.00 0.00 82 1009.9
20260507013028 7 56 0.0 0.0 0.00 0.00 0.00 82 1009.9
20260507011539 8 56 0.0 0.0 0.00 0.00 0.00 81 1010.0
20260507010029 8 56 0.0 0.0 0.00 0.00 0.00 81 1010.1
20260507004523 8 274 0.0 0.0 0.00 0.00 0.00 80 1010.0
20260507003022 8 232 0.0 1.6 0.00 0.00 0.00 79 1009.9
20260507001545 8 145 0.0 0.0 0.00 0.00 0.00 79 1010.1
20260507000023 8 147 0.0 0.0 0.00 0.00 0.00 78 1010.2
20260506234517 8 153 0.0 3.2 0.00 0.00 0.00 77 1010.1
20260506233017 9 172 0.0 0.0 0.00 0.00 0.00 76 1010.0
20260506231513 9 179 0.0 1.6 0.00 0.00 0.00 76 1010.0
20260506230014 9 86 0.0 4.8 0.00 0.00 0.00 75 1009.9
20260506224509 9 245 0.0 3.2 0.00 0.00 0.00 75 1009.8
20260506223008 9 231 0.0 0.0 0.00 0.00 0.00 75 1009.8
20260506221509 9 176 0.0 0.0 0.00 0.00 0.00 75 1009.8
20260506220008 10 240 0.0 0.0 0.00 0.00 0.00 74 1009.8
20260506214507 10 189 0.0 0.0 0.00 0.00 0.00 73 1009.7
20260506213106 10 167 0.0 0.0 0.00 0.00 0.00 73 1009.6
20260506211506 10 238 0.0 0.0 0.00 0.00 0.00 72 1009.6
20260506210008 10 239 0.0 0.0 0.00 0.00 0.00 72 1009.4
20260506204504 10 262 0.0 0.0 0.00 0.00 0.00 72 1009.4
20260506203008 10 234 0.0 0.0 0.00 0.00 0.00 70 1009.3
20260506201504 10 260 0.0 0.0 0.00 0.00 0.00 68 1009.0
20260506200003 10 271 0.0 0.0 0.00 0.00 0.00 69 1008.8
20260506194505 10 245 0.0 0.0 0.00 0.00 0.00 67 1008.7
20260506193002 11 242 0.0 0.0 0.00 0.00 0.00 68 1008.7
20260506191502 11 243 0.0 0.0 0.00 0.00 0.00 68 1008.6
20260506190001 11 232 0.0 0.0 0.00 0.00 0.00 67 1008.6
20260506184600 12 260 0.0 0.0 0.00 0.00 0.00 64 1008.5
20260506183108 12 122 0.0 0.0 0.00 0.00 0.00 62 1008.4
20260506181604 13 266 0.0 0.0 0.00 0.00 0.00 58 1008.3
20260506180059 13 1 0.0 3.2 0.00 0.00 0.00 57 1008.2
20260506174558 13 19 0.0 6.4 0.00 0.00 0.00 57 1008.1
20260506173109 13 80 0.0 3.2 0.00 0.00 0.00 56 1008.1
20260506171557 13 70 0.0 1.6 0.00 0.00 0.00 55 1008.1
20260506170107 13 139 0.0 1.6 0.00 0.00 0.00 56 1008.1
20260506164624 13 326 0.0 3.2 0.00 0.00 0.00 55 1008.1
20260506163104 13 77 0.0 4.8 0.00 0.00 0.00 56 1008.1
20260506161556 13 82 0.0 0.0 0.00 0.00 0.00 57 1008.1
20260506160105 14 55 0.0 4.8 0.00 0.00 0.00 57 1008.1
20260506154556 14 70 0.0 3.2 0.00 0.00 0.00 56 1008.1